Meridian, MS

12:27 AM CDT on October 16, 2019 (GMT -0500)
Key

Weather History for KMEI - September, 2019

Change the Weather History Date:

Saturday, September 21, 2019

  Actual Average Record
Temperature  
Mean Temperature 78 °F 73 °F  
Max Temperature 93 °F 85 °F 99 °F (1925)
Min Temperature 63 °F 61 °F 45 °F (1899)
Degree Days  
Heating Degree Days 0 0  
Month to date heating degree days 0 0  
Since 1 July heating degree days 0 0  
Cooling Degree Days 13 9  
Month to date cooling degree days 398 241  
Year to date cooling degree days 2481 1861  
Growing Degree Days 28 (Base 50)    
Moisture  
Dew Point 62 °F    
Average Humidity 64    
Maximum Humidity 93    
Minimum Humidity 34    
Precipitation  
Precipitation 0.00 in 0.11 in 1.50 in (1909)
Month to date precipitation 0.23 2.38  
Year to date precipitation 43.18 41.34  
Sea Level Pressure  
Sea Level Pressure 30.17 in    
Wind  
Wind Speed 2 mph ()    
Max Wind Speed 15 mph    
Max Gust Speed 20 mph    
Visibility 10.0 miles    
Events      
T = Trace of Precipitation, MM = Missing Value Source: Averaged Metar Reports

Daily Weather History Graph

Daily Weather History Graph

Search for Another Location

Airport or City:

Astronomy

Sep. 21, 2019 Rise Set
Actual Time 6:42 AM CDT 6:53 PM CDT
Civil Twilight 6:17 AM CDT 7:17 PM CDT
Nautical Twilight 5:49 AM CDT 7:46 PM CDT
Astronomical Twilight 5:20 AM CDT 8:15 PM CDT
Moon 11:52 PM CDT (9/21) 1:26 PM CDT (9/21)
Length of Visible Light 12h 59m
Length of Day
12h 10m
Waning Gibbous, 54% of the Moon is Illuminated
Sep 21
Waning Gibbous
Sep 21
Last Quarter
Sep 28
New
Oct 5
First Quarter
Oct 13
Full

Hourly Weather History & Observations

Time (CDT) Temp. Heat Index Dew Point Humidity Pressure Visibility Wind Dir Wind Speed Gust Speed Precip Events Conditions
12:58 AM 66.9 °F - 61.0 °F 81% 30.17 in 10.0 mi Calm Calm - N/A   Partly Cloudy
1:58 AM 64.9 °F - 61.0 °F 87% 30.17 in 10.0 mi Calm Calm - N/A   Clear
2:58 AM 66.0 °F - 60.1 °F 81% 30.16 in 10.0 mi Calm Calm - N/A   Clear
3:58 AM 64.0 °F - 60.1 °F 87% 30.16 in 10.0 mi Calm Calm - N/A   Clear
4:58 AM 64.0 °F - 60.1 °F 87% 30.17 in 10.0 mi Calm Calm - N/A   Clear
5:58 AM 64.0 °F - 60.1 °F 87% 30.19 in 10.0 mi Calm Calm - N/A   Clear
6:58 AM 63.0 °F - 60.1 °F 90% 30.21 in 10.0 mi Calm Calm - N/A   Clear
7:58 AM 70.0 °F - 62.1 °F 76% 30.22 in 10.0 mi Calm Calm - N/A   Clear
8:58 AM 78.1 °F - 64.0 °F 62% 30.24 in 10.0 mi SSE 6.9 mph - N/A   Clear
9:58 AM 82.0 °F 83.4 °F 64.0 °F 54% 30.24 in 10.0 mi SSE 9.2 mph - N/A   Clear
10:58 AM 84.9 °F 86.1 °F 64.0 °F 49% 30.23 in 10.0 mi SE 9.2 mph - N/A   Clear
11:58 AM 88.0 °F 87.9 °F 61.0 °F 40% 30.21 in 10.0 mi ESE 11.5 mph - N/A   Clear
12:58 PM 89.1 °F 89.0 °F 61.0 °F 39% 30.18 in 10.0 mi East 9.2 mph - N/A   Mostly Cloudy
1:58 PM 91.0 °F 90.9 °F 61.0 °F 36% 30.16 in 10.0 mi SE 6.9 mph - N/A   Clear
2:58 PM 91.9 °F 91.5 °F 60.1 °F 34% 30.14 in 10.0 mi SE 8.1 mph - N/A   Scattered Clouds
3:58 PM 91.0 °F 90.5 °F 60.1 °F 35% 30.12 in 10.0 mi Variable 4.6 mph - N/A   Scattered Clouds
4:58 PM 91.0 °F 90.5 °F 60.1 °F 35% 30.10 in 10.0 mi SE 8.1 mph - N/A   Clear
5:58 PM 90.0 °F 89.7 °F 60.1 °F 37% 30.10 in 10.0 mi SE 5.8 mph - N/A   Clear
6:58 PM 86.0 °F 86.1 °F 61.0 °F 43% 30.11 in 10.0 mi East 4.6 mph - N/A   Clear
7:58 PM 75.0 °F - 64.9 °F 71% 30.12 in 10.0 mi Calm Calm - N/A   Clear
8:58 PM 73.0 °F - 64.9 °F 76% 30.13 in 10.0 mi Calm Calm - N/A   Clear
9:58 PM 71.1 °F - 64.9 °F 81% 30.14 in 10.0 mi Calm Calm - N/A   Clear
10:58 PM 71.1 °F - 64.0 °F 78% 30.15 in 10.0 mi Calm Calm - N/A   Overcast
11:58 PM 70.0 °F - 64.9 °F 84% 30.14 in 10.0 mi Calm Calm - N/A   Clear